Flag for U.S.A. Weather past 2 weeks in Abilene, Texas, U.S.A.

Now
70 °F

Passing clouds.


Feels Like: 73 °F
Forecast: 64 / 72 °F
Wind: 6 mph from Southwest

Location: Abilene Regional Airport

Current Time: May 4, 2015 at 10:11:30 PM

Latest Report: May 4, 2015 at 8:52 PM


Visibility: 10 mi

Pressure: 29.88 "Hg

Humidity: 73%

Dew point: 61 °F

Location of AbileneLocation

Historic Weather in Abilene — Graph

°F

Abilene temperature yesterday

Maximum temperature yesterday: 83 °F (at 3:52 PM)
Minimum temperature yesterday: 58 °F (at 6:52 AM)
Average temperature yesterday: 71 °F

Past Weeks' High & Low Weather Summary

 TemperatureHumidityPressure
High85 °F (Apr 25, 4:52 PM)100% (Apr 28, 2:59 AM)30.15 "Hg (Apr 28, 2:59 AM)
Low41 °F (Apr 29, 6:52 AM)17% (Apr 25, 5:52 PM)29.43 "Hg (Apr 26, 5:52 PM)
Average66 °F61%29.87 "Hg
* Reported Apr 19 8:52 PM — May 4 8:52 PM, Abilene, Weather by CustomWeather, © 2015

Note: Actual official high and low records may vary slightly from our data, if they occured in-between our weather recording intervals... More about our weather records

Advertising

Abilene weather history for previous 24 hours

 ConditionsComfort  
Time TempWeatherWind HumidityBarometerVisibility
8:52 PM
Mon, May 4
70 °FPassing clouds.6 mph73%29.88 "Hg10 mi
7:52 PM74 °FSunny.15 mph60%29.86 "Hg10 mi
6:52 PM76 °FSunny.15 mph60%29.87 "Hg10 mi
5:52 PM75 °FSunny.12 mph69%29.88 "Hg10 mi
4:52 PM77 °FPassing clouds.21 mph54%29.90 "Hg10 mi
3:52 PM79 °FScattered clouds.21 mph50%29.92 "Hg10 mi
2:52 PM80 °FPassing clouds.17 mph51%29.94 "Hg10 mi
1:52 PM80 °FSunny.20 mph54%29.96 "Hg10 mi
12:52 PM78 °FBroken clouds.16 mph58%30.00 "Hg10 mi
12:00 PM76 °FScattered clouds.16 mph62%30.07 "Hg10 mi
10:52 AM72 °FOvercast.15 mph71%30.00 "Hg10 mi
9:52 AM69 °FPartly sunny.16 mph76%29.99 "Hg10 mi
8:52 AM67 °FOvercast.13 mph79%29.98 "Hg10 mi
7:52 AM65 °FOvercast.8 mph85%29.97 "Hg10 mi
6:52 AM63 °FOvercast.7 mph90%29.94 "Hg10 mi
5:52 AM63 °FClear.12 mph87%29.90 "Hg10 mi
4:52 AM64 °FClear.9 mph84%29.88 "Hg10 mi
3:52 AM65 °FClear.12 mph76%29.88 "Hg10 mi
2:52 AM66 °FClear.10 mph70%29.90 "Hg10 mi
1:52 AM68 °FClear.13 mph61%29.90 "Hg10 mi
12:52 AM70 °FClear.13 mph55%29.90 "Hg10 mi
11:52 PM
Sun, May 3
70 °FClear.15 mph57%29.89 "Hg10 mi
10:52 PM71 °FClear.16 mph55%29.89 "Hg10 mi
Weather by CustomWeather, © 2015

See weather overviewHow to use our weather pages